Temperature
19 19 20 19 16 14 17 18 18 19 20 22 22 22 21 22 23 22 23 22 21 19 18 17 15 15 14 14 14 14 13 13 13 12 11 11 12 12 12 11 11 11 11 11 11 11 11 12 11
19 19 19 18 14 15 16 17 18 20 21 22 22 22 22 22 23 23 23 22 21 20 18 17 15 15 14 14 14 13 13 13 13 12 12 12 12 12 11 11 11 11 12 12 12 12 11 12 11
19 19 19 14 14 15 18 18 18 19 21 21 22 23 22 23 23 24 23 23 22 20 18 17 15 15 14 14 14 13 13 13 13 13 12 12 12 12 12 12 11 11 12 13 12 12 12 12 11
19 19 18 13 17 16 16 17 18 17 20 21 22 23 23 24 24 24 24 23 22 21 19 17 15 14 14 14 14 13 13 13 13 13 12 13 13 12 12 12 12 12 12 13 13 13 13 13 13
18 18 14 13 15 16 16 17 19 17 18 22 22 22 23 24 24 24 24 23 22 21 19 17 16 15 14 14 14 13 13 13 13 12 12 13 13 12 12 12 12 13 13 13 13 12 13 13 13
18 15 14 14 15 15 15 18 17 17 18 21 22 22 24 24 24 24 24 23 22 21 19 17 16 15 14 14 14 14 13 13 13 13 12 12 12 12 12 13 13 13 12 12 11 11 12 12 13
17 13 14 15 14 14 17 19 17 17 18 21 22 21 24 24 24 24 24 23 22 21 19 17 16 15 14 14 14 14 14 14 14 13 13 12 12 12 13 13 13 12 12 11 11 11 11 11 12
17 13 15 14 14 15 17 18 19 19 19 21 21 21 23 23 23 24 24 24 22 21 20 18 17 16 15 15 14 14 14 14 14 14 14 13 13 14 14 14 14 13 13 12 12 12 12 12 12
16 13 13 14 14 15 17 17 18 19 19 21 21 22 23 23 23 23 24 24 23 22 21 19 17 16 16 16 15 14 14 14 14 14 14 14 14 15 15 15 15 14 13 13 13 12 12 12 12
15 12 13 14 15 16 17 16 18 18 18 20 22 22 22 22 23 23 24 24 23 23 21 20 18 17 17 17 16 16 15 15 15 15 15 15 15 15 15 15 14 14 13 13 13 12 12 12 13
14 13 14 15 17 17 16 17 18 18 16 20 21 22 22 22 22 22 23 23 23 22 21 20 19 18 17 17 16 16 16 16 16 16 16 16 16 16 15 15 14 14 14 13 13 13 13 13 13
13 13 15 16 17 17 17 17 17 17 18 20 21 21 21 22 22 22 22 22 21 21 20 20 19 18 18 17 17 17 16 16 16 16 16 16 16 16 16 15 15 15 14 14 14 13 13 13 13
13 14 16 17 17 17 16 16 16 17 20 21 20 21 21 21 22 21 21 21 21 20 20 20 19 19 18 18 17 17 17 17 16 16 17 16 16 16 16 16 15 15 14 14 14 14 13 13 13
14 15 16 16 16 16 16 16 16 18 20 20 20 21 21 21 22 21 21 21 20 20 20 20 19 19 18 18 18 17 17 17 16 16 16 16 16 16 16 15 15 15 14 14 14 14 14 14 13
15 15 14 15 16 16 16 14 15 19 19 19 20 20 20 21 21 21 21 21 21 21 21 20 20 19 19 19 18 18 17 17 16 16 16 16 16 15 15 15 15 14 14 13 13 13 13 13 13
14 14 14 14 15 16 16 14 16 18 18 19 19 18 18 20 20 20 20 20 20 20 21 21 21 20 20 19 18 18 17 17 17 16 16 15 15 14 14 14 14 13 13 13 12 12 12 12 12
14 13 13 14 15 15 14 14 15 17 18 18 17 16 17 17 18 18 19 19 20 20 20 20 20 20 19 19 18 18 17 17 17 16 16 15 14 14 13 13 13 13 12 12 12 12 12 12 12
12 13 14 13 15 15 14 13 16 17 17 17 16 15 15 17 16 17 18 19 19 19 19 19 19 19 19 19 18 17 17 16 16 15 15 14 14 13 13 13 12 12 12 12 12 12 12 11 11
13 13 13 13 14 14 13 13 15 15 16 15 14 14 14 15 15 16 17 18 18 18 19 19 19 19 18 18 17 16 15 15 14 14 14 14 14 13 13 13 13 12 12 12 12 12 12 11 11
13 13 13 13 14 14 13 13 14 13 15 15 14 14 14 14 15 16 17 17 18 18 19 19 19 18 18 17 17 16 14 14 13 13 13 13 13 13 12 12 12 12 12 12 12 11 11 11 11
13 13 13 13 12 14 13 13 13 14 14 13 14 14 14 15 15 15 16 16 17 17 17 17 17 17 17 16 16 15 14 13 13 13 12 12 12 12 12 11 11 11 11 11 11 11 10 10 10
12 13 13 13 13 12 13 12 13 14 14 12 13 13 14 14 14 14 14 15 15 15 15 15 15 15 15 14 14 14 13 13 12 12 11 11 11 11 11 11 11 11 11 11 10 10 10 9 9
13 13 13 13 13 12 12 12 12 13 13 12 11 12 13 14 14 13 14 14 14 14 14 14 14 14 13 13 13 13 12 12 12 12 12 12 12 11 11 11 11 11 10 10 10 10 10 9 9
13 13 13 11 12 12 12 12 12 12 12 12 11 12 13 13 13 13 13 13 13 13 13 13 13 13 12 12 12 12 12 12 12 12 12 12 11 11 11 11 10 9 9 8 8 8 8 8 8
13 12 12 12 11 11 12 11 12 13 13 12 11 12 13 13 12 12 12 12 12 12 12 12 12 12 12 12 12 11 11 11 11 11 11 11 11 10 10 10 9 8 8 7 7 7 7 7 6
12 12 11 12 11 11 12 10 12 13 12 13 14 14 13 12 12 12 12 12 12 12 12 12 12 11 11 11 11 10 10 10 10 10 9 9 9 9 8 8 8 7 7 6 6 6 5 5 4
11 11 12 11 12 11 11 11 12 13 11 10 12 12 12 12 12 12 12 12 12 12 12 11 11 11 11 11 10 10 10 10 9 9 9 8 8 7 7 7 6 6 6 5 5 4 4 3 3
12 11 10 12 12 12 12 12 13 14 13 10 9 10 11 12 12 12 12 12 11 11 11 11 10 10 10 10 9 9 9 9 9 8 8 7 7 6 6 6 6 5 5 5 4 4 3 2 1
11 11 11 10 11 11 12 13 13 12 12 10 10 11 12 12 12 12 11 11 11 10 10 10 10 9 9 9 9 8 8 8 7 7 6 6 6 5 5 5 5 5 4 4 3 3 2 1 0
12 11 10 11 10 9 10 12 13 10 10 10 11 11 12 13 12 12 11 10 10 10 9 9 9 9 8 8 8 7 7 6 6 5 5 5 5 5 5 4 4 4 4 3 3 2 1 0 -1
Wind_Speed
13 7 3 4 6 5 3 5 4 5 5 4 5 5 4 4 3 6 2 7 4 6 11 14 14 14 14 13 12 11 10 9 8 7 7 7 7 5 3 2 1 1 1 3 5 4 1 1 1
5 4 6 5 5 1 5 5 5 5 5 6 4 2 4 5 4 3 2 7 6 8 12 12 15 16 16 15 13 12 11 10 9 8 7 9 9 7 5 4 3 3 2 4 6 7 2 2 3
4 6 5 5 4 5 5 4 5 8 10 6 4 3 4 4 3 3 5 8 7 8 12 13 15 15 15 14 12 11 10 10 10 9 7 10 9 8 6 3 4 4 4 5 6 6 4 4 5
5 6 6 5 1 5 5 6 7 10 10 5 4 5 5 4 3 3 5 9 10 9 11 12 14 15 15 13 12 11 11 10 10 9 9 9 10 9 8 5 5 5 6 6 7 8 7 7 8
5 5 6 4 5 6 6 7 6 7 7 5 3 5 5 1 1 3 8 9 10 8 9 11 15 15 15 14 13 12 11 11 10 9 8 9 11 10 9 7 6 7 8 9 9 9 10 10 10
5 5 3 3 6 7 7 5 6 6 6 6 4 4 6 0 1 4 7 7 8 8 8 10 15 16 15 15 14 14 13 11 10 9 7 6 8 9 8 8 8 8 10 10 11 11 11 11 12
4 4 3 3 5 7 5 5 7 7 7 6 3 4 6 4 3 5 6 6 6 6 6 7 10 13 15 15 15 14 13 12 11 10 9 5 4 6 7 9 8 9 11 12 12 12 12 12 13
5 4 2 3 4 7 6 9 6 5 7 7 3 4 7 6 1 5 5 5 5 5 6 5 7 9 10 12 15 15 13 12 12 11 10 8 6 6 7 9 9 10 12 13 13 13 13 13 13
4 3 4 6 6 6 4 7 7 5 6 7 4 4 5 4 3 4 4 3 4 5 5 6 6 7 8 9 11 13 13 13 12 11 10 10 8 7 8 9 9 11 13 13 14 14 14 14 13
5 4 8 6 6 5 6 6 7 8 10 7 6 4 2 1 3 6 8 8 7 7 6 6 7 6 7 8 8 8 8 9 9 8 7 8 8 9 9 9 10 12 13 13 15 16 16 14 10
7 8 6 6 6 5 5 7 4 5 8 7 9 10 5 3 6 9 10 8 7 6 6 7 8 7 6 4 5 5 6 7 8 8 8 8 7 6 5 5 6 8 10 10 11 12 11 9 8
6 7 6 6 3 4 5 6 7 7 12 12 11 8 7 8 11 12 9 5 2 5 8 8 8 8 7 6 4 5 4 5 6 9 10 7 4 3 4 4 6 7 7 7 8 8 10 10 11
6 6 5 8 10 8 7 9 8 10 15 13 10 11 11 10 10 6 5 4 6 8 9 9 10 10 9 8 6 4 4 6 8 9 10 9 4 6 4 4 5 7 8 7 6 6 7 8 8
8 7 8 9 10 5 8 12 8 13 10 10 10 11 10 8 6 5 6 8 8 9 9 9 10 11 10 9 8 7 5 7 7 8 11 12 9 5 6 6 5 6 9 9 8 9 9 9 8
5 3 8 8 8 6 4 12 12 13 6 9 11 9 5 6 6 5 6 6 7 8 8 9 9 10 11 11 10 8 6 7 5 7 11 12 11 7 5 6 7 7 10 9 8 7 6 9 9
6 3 6 8 5 5 5 14 18 6 5 6 7 5 6 8 9 7 8 7 7 7 8 6 6 8 10 9 8 6 4 5 5 7 8 9 10 10 5 7 9 7 7 5 7 7 7 10 10
5 5 6 8 4 3 6 11 13 2 2 3 1 2 6 8 10 10 10 9 8 8 8 8 4 4 6 7 5 5 4 5 3 4 4 6 9 10 6 8 8 7 5 6 8 8 7 11 12
8 6 6 8 4 2 7 13 20 6 2 3 4 3 6 9 9 7 9 9 9 9 9 9 9 7 2 2 1 1 1 2 2 2 4 7 7 8 6 7 8 7 6 7 7 10 9 10 12
8 8 8 8 5 4 10 14 19 13 6 5 5 4 6 7 5 8 10 10 10 11 11 11 13 10 6 5 4 2 2 2 2 2 4 5 5 5 4 5 7 6 6 8 9 8 10 10 8
5 5 5 7 3 4 8 12 12 8 5 5 8 6 5 7 8 9 10 11 11 11 12 14 14 13 9 5 3 3 4 4 4 6 8 10 9 8 5 5 5 6 6 8 8 8 7 7 6
6 6 6 7 9 7 7 10 9 4 2 6 7 6 6 7 7 7 9 10 10 12 12 12 13 14 13 9 6 6 5 5 6 7 7 7 10 11 9 9 8 8 7 7 8 7 8 10 8
8 6 6 5 5 6 5 7 9 5 3 5 7 7 7 6 6 7 8 9 9 9 9 11 12 13 13 11 13 13 9 7 6 4 5 7 8 9 10 8 9 8 7 8 8 8 7 8 9
6 5 6 4 4 5 3 5 10 4 6 8 8 8 7 7 7 7 8 8 8 8 9 10 12 14 13 13 12 11 9 6 4 5 8 9 8 8 10 9 10 9 8 8 9 8 8 6 7
6 6 4 4 2 5 6 8 9 6 8 8 8 9 8 7 6 7 7 8 9 8 9 9 13 13 12 12 12 11 11 10 10 10 10 8 7 7 10 10 9 9 8 9 9 9 10 8 9
6 5 2 2 2 7 4 6 10 7 6 9 13 11 9 8 7 7 8 9 9 9 9 9 12 12 10 12 13 11 10 10 10 9 9 9 8 7 11 10 10 10 10 10 9 9 10 10 10
9 9 8 7 6 5 3 7 9 5 5 7 10 11 9 8 7 7 8 8 8 9 9 9 11 10 10 10 10 9 9 7 7 8 7 7 7 6 10 11 10 11 11 12 11 9 10 9 10
9 8 6 5 3 4 6 8 9 1 6 4 11 11 10 9 8 8 8 8 8 9 8 8 9 10 9 8 8 9 8 8 7 7 6 6 6 7 9 10 10 11 12 12 12 10 12 12 10
8 11 6 5 4 5 7 6 5 6 2 4 10 11 9 8 8 8 8 7 7 7 7 8 9 9 8 8 8 7 7 8 7 7 8 8 9 9 9 10 10 11 11 12 12 11 12 13 10
6 6 6 6 5 5 4 7 5 6 6 8 9 9 10 10 9 8 8 7 7 7 7 8 8 8 8 7 7 8 8 8 7 7 8 8 8 9 10 11 12 12 12 13 13 12 13 13 13
7 9 8 6 5 5 3 7 5 6 3 7 8 7 9 9 8 8 8 7 7 7 7 8 7 7 7 7 7 7 7 7 8 8 8 8 8 9 9 10 11 12 12 12 12 13 13 13 14
Wind_Direction
342 4 64 52 54 58 225 244 245 292 286 274 286 283 258 244 232 260 310 152 172 160 173 191 183 178 171 168 168 170 174 182 192 193 193 193 180 177 199 207 181 207 290 316 328 296 226 0 237
348 29 51 56 85 93 265 258 264 264 268 300 284 250 272 255 236 247 195 188 180 165 170 187 189 188 182 176 175 177 184 192 201 209 209 198 184 179 196 224 237 250 269 293 308 330 332 336 297
33 49 70 67 109 186 249 265 270 288 285 266 269 238 243 248 225 228 209 173 156 160 167 184 195 195 183 180 178 183 191 199 210 218 221 205 191 177 176 206 248 259 261 272 282 302 306 285 279
46 38 54 65 261 232 247 279 294 305 307 260 238 274 255 237 222 213 164 153 151 162 168 185 199 189 182 183 185 189 195 204 213 223 229 215 200 189 184 197 233 246 251 252 259 265 272 273 270
52 64 46 5 285 275 274 279 298 308 290 293 246 264 269 236 311 145 150 154 157 163 169 188 200 190 187 188 191 193 201 204 214 230 242 227 210 205 195 200 222 238 245 248 255 260 262 264 266
43 61 64 301 288 289 275 266 310 304 284 283 246 252 263 307 168 168 162 162 163 163 167 193 205 197 193 194 195 196 202 205 215 233 231 219 224 213 201 211 230 246 252 255 260 265 267 266 265
105 108 181 242 282 289 272 319 320 302 295 284 264 244 283 292 215 154 160 158 159 161 163 190 211 206 199 200 201 204 206 207 214 227 229 207 204 216 222 231 246 257 258 257 260 265 269 270 270
127 117 175 232 247 268 290 325 303 282 284 282 220 245 281 328 173 130 136 146 166 176 182 188 207 206 204 206 207 210 212 212 216 226 237 208 201 218 239 250 251 257 262 261 262 267 273 276 277
98 99 213 224 220 252 297 330 307 279 289 293 259 247 290 324 112 133 148 151 183 196 197 194 201 206 204 206 213 215 216 218 222 232 241 210 207 222 241 254 254 260 268 270 269 272 275 277 280
120 183 225 221 206 241 299 301 296 311 316 304 311 278 336 49 186 206 207 203 200 203 204 197 203 209 205 207 209 215 218 224 227 229 230 214 215 227 241 257 266 271 276 280 279 278 278 283 287
171 204 234 247 235 250 283 287 266 277 291 275 289 300 312 227 230 237 234 221 212 213 213 196 204 208 201 204 202 209 217 225 230 227 225 222 225 239 257 276 286 286 286 285 282 283 282 280 275
184 239 237 263 252 243 262 280 277 235 246 262 272 294 291 249 232 236 255 279 272 232 228 212 205 207 205 204 205 206 209 218 223 225 223 216 218 227 237 241 250 257 260 261 260 257 259 260 260
199 255 257 252 265 259 264 257 257 255 257 277 295 291 276 261 253 271 295 279 246 242 237 221 210 209 206 206 211 204 207 216 222 225 226 219 211 225 221 229 241 245 244 242 245 248 250 253 255
205 230 271 283 278 264 256 269 255 258 264 295 297 290 295 286 269 263 271 270 261 253 249 232 215 210 206 208 211 216 211 220 222 224 228 225 225 224 232 243 243 242 242 243 244 246 251 255 256
169 236 291 279 269 261 253 285 250 255 269 294 311 312 337 15 13 355 340 323 315 296 278 247 226 208 207 211 211 214 211 215 217 226 230 227 227 231 234 250 254 252 249 249 253 254 255 262 258
144 195 265 278 277 261 184 267 278 280 246 299 329 356 57 53 40 23 12 2 349 337 324 290 248 210 207 211 211 210 201 212 226 233 236 235 236 237 238 253 262 258 248 243 252 256 258 263 262
154 188 230 280 264 249 201 258 281 42 20 326 314 35 65 53 31 16 11 10 5 1 359 0 337 245 214 210 208 211 207 224 245 255 258 255 251 247 242 258 268 269 255 250 256 261 251 270 273
175 180 220 246 278 259 246 260 278 277 301 267 161 113 73 61 32 11 15 17 22 22 22 26 30 22 45 122 125 35 338 316 311 295 275 266 259 254 244 260 273 278 273 268 257 264 265 268 276
161 178 221 249 270 287 265 268 276 286 265 230 167 136 90 70 35 26 28 26 31 29 29 30 36 29 48 70 74 71 14 346 348 337 315 310 304 292 263 272 281 282 275 280 278 275 278 278 276
156 193 249 285 285 246 280 280 274 276 249 194 164 155 119 89 56 39 33 32 34 35 34 38 38 36 39 60 78 87 87 58 47 37 35 31 30 23 14 355 335 323 311 308 304 295 291 288 267
191 203 245 281 329 336 326 301 296 299 102 115 129 138 124 113 104 74 53 42 39 39 37 45 40 41 40 44 57 56 52 44 34 27 29 24 35 35 30 24 15 4 360 343 331 320 309 308 298
217 206 223 267 318 299 4 309 289 275 181 147 138 138 141 135 118 98 78 60 48 42 42 49 50 48 43 48 62 66 65 58 29 16 17 18 23 25 20 13 8 1 357 351 344 345 330 322 319
186 184 201 233 238 279 283 255 279 271 220 202 176 171 172 155 130 107 91 81 65 56 56 57 60 55 50 54 58 66 64 56 36 27 24 20 15 16 15 8 3 356 349 340 335 335 332 325 318
132 97 84 53 91 276 233 209 279 244 218 196 179 180 180 161 137 111 97 88 75 64 61 63 67 58 50 54 54 57 54 42 36 26 19 12 6 4 8 360 355 347 343 337 331 327 322 318 312
134 130 138 249 240 248 230 212 251 256 226 192 177 179 178 167 151 129 109 94 88 78 71 69 72 62 52 55 51 45 44 41 36 23 14 9 2 356 358 354 348 346 340 335 331 326 320 313 313
175 172 173 192 220 269 231 233 254 278 281 225 167 158 157 164 163 141 120 111 106 93 78 73 73 65 55 57 53 44 43 41 31 20 12 4 354 342 347 345 343 340 337 336 333 327 321 319 313
167 199 177 140 206 262 268 274 299 360 25 132 148 148 159 167 166 143 121 116 109 94 82 81 81 70 59 57 60 46 36 33 23 12 6 357 348 346 343 338 339 339 337 337 334 330 326 322 316
166 153 140 166 194 255 286 280 266 317 337 157 161 159 158 162 161 142 128 120 105 97 88 76 75 73 64 57 53 48 29 22 12 8 4 356 347 343 340 342 342 341 339 339 334 332 328 327 327
130 148 153 151 160 174 274 281 245 276 254 194 182 165 162 171 168 150 134 123 112 95 82 74 69 66 57 53 47 37 23 11 5 4 358 350 343 341 344 345 343 341 340 337 332 330 331 332 328
154 165 147 156 203 180 193 273 300 298 248 155 151 157 175 181 163 144 137 127 109 92 80 73 65 60 52 50 45 32 16 5 2 356 350 345 341 340 342 342 340 337 334 329 323 324 330 325 323
Height
1523 1521 1519 1520 1523 1534 1533 1524 1517 1515 1511 1508 1506 1505 1504 1504 1505 1509 1501 1498 1497 1497 1497 1498 1499 1501 1503 1504 1504 1505 1505 1505 1505 1505 1507 1508 1508 1508 1509 1509 1509 1509 1508 1509 1509 1510 1510 1510 1510
1523 1521 1521 1521 1531 1540 1534 1521 1517 1512 1509 1507 1504 1504 1503 1501 1500 1500 1498 1497 1497 1497 1497 1498 1499 1501 1502 1503 1504 1504 1504 1504 1504 1505 1507 1508 1508 1508 1509 1509 1508 1508 1508 1508 1508 1508 1508 1509 1509
1523 1522 1522 1525 1534 1537 1528 1518 1516 1511 1507 1506 1503 1502 1502 1500 1499 1498 1498 1497 1497 1497 1497 1497 1499 1500 1502 1503 1504 1503 1503 1504 1504 1504 1506 1507 1508 1508 1508 1508 1507 1507 1506 1507 1507 1507 1507 1507 1507
1524 1523 1523 1531 1531 1529 1524 1517 1514 1511 1505 1504 1503 1501 1500 1499 1498 1498 1497 1497 1496 1496 1496 1497 1499 1501 1502 1503 1503 1503 1503 1503 1503 1504 1505 1507 1508 1507 1507 1507 1506 1505 1505 1505 1505 1506 1506 1506 1506
1524 1523 1530 1537 1533 1526 1520 1516 1513 1512 1507 1503 1503 1500 1497 1497 1497 1496 1497 1497 1496 1496 1496 1498 1499 1500 1501 1502 1502 1502 1502 1502 1503 1503 1504 1506 1507 1507 1506 1505 1505 1505 1504 1504 1504 1504 1504 1504 1504
1526 1526 1537 1539 1533 1526 1519 1516 1513 1510 1506 1503 1502 1500 1496 1496 1496 1496 1496 1496 1496 1496 1496 1497 1499 1500 1500 1501 1501 1501 1501 1501 1502 1502 1503 1504 1506 1506 1505 1504 1504 1504 1503 1503 1503 1503 1503 1503 1502
1527 1530 1534 1533 1533 1527 1517 1514 1512 1509 1506 1503 1502 1500 1495 1495 1495 1495 1495 1496 1496 1496 1496 1497 1499 1500 1500 1500 1501 1501 1500 1500 1501 1501 1502 1503 1504 1504 1503 1503 1503 1503 1503 1503 1503 1502 1502 1501 1501
1525 1529 1530 1533 1531 1526 1516 1513 1511 1509 1505 1503 1501 1499 1495 1496 1494 1494 1494 1495 1496 1496 1496 1497 1498 1499 1500 1500 1500 1500 1500 1500 1500 1500 1501 1501 1502 1502 1502 1502 1502 1502 1501 1501 1501 1501 1501 1500 1500
1523 1531 1533 1529 1526 1521 1515 1513 1510 1508 1506 1502 1500 1498 1497 1496 1494 1493 1493 1494 1495 1495 1495 1496 1497 1498 1499 1499 1499 1499 1499 1499 1499 1500 1500 1500 1501 1501 1501 1501 1501 1500 1500 1500 1500 1500 1499 1499 1498
1522 1530 1526 1520 1517 1515 1513 1513 1511 1508 1504 1500 1498 1497 1496 1495 1494 1493 1492 1492 1493 1494 1495 1495 1496 1497 1498 1498 1498 1499 1499 1499 1499 1499 1499 1500 1500 1500 1500 1500 1500 1499 1499 1499 1498 1498 1497 1496 1495
1518 1522 1518 1515 1514 1513 1512 1511 1510 1509 1505 1500 1498 1495 1494 1494 1493 1492 1491 1491 1492 1494 1494 1494 1495 1496 1497 1497 1498 1498 1498 1498 1498 1498 1498 1499 1499 1499 1499 1498 1498 1498 1497 1497 1496 1496 1495 1494 1493
1516 1515 1514 1513 1512 1511 1510 1509 1508 1506 1502 1498 1497 1495 1493 1492 1491 1491 1491 1491 1491 1492 1492 1493 1493 1494 1495 1496 1496 1497 1497 1497 1497 1498 1498 1498 1498 1498 1498 1497 1497 1496 1496 1495 1494 1493 1492 1491 1490
1513 1512 1510 1510 1510 1509 1508 1506 1504 1499 1497 1495 1494 1493 1491 1490 1489 1489 1489 1489 1489 1490 1490 1490 1491 1491 1492 1493 1494 1494 1495 1495 1496 1496 1497 1497 1497 1497 1497 1496 1495 1495 1494 1493 1492 1491 1489 1488 1486
1509 1510 1509 1509 1508 1506 1504 1500 1500 1491 1494 1492 1491 1489 1488 1487 1486 1486 1486 1486 1486 1487 1487 1487 1488 1488 1489 1490 1491 1492 1493 1493 1494 1495 1495 1495 1495 1495 1495 1494 1493 1492 1491 1490 1489 1487 1485 1483 1481
1507 1510 1509 1506 1504 1502 1502 1498 1490 1486 1489 1488 1487 1484 1483 1483 1483 1483 1482 1483 1483 1483 1483 1483 1484 1484 1486 1487 1489 1489 1490 1491 1492 1492 1493 1494 1494 1493 1492 1491 1490 1489 1488 1486 1484 1482 1480 1478 1475
1506 1511 1514 1506 1503 1500 1505 1502 1483 1486 1485 1485 1485 1483 1481 1480 1480 1480 1480 1481 1481 1481 1480 1479 1479 1480 1482 1484 1486 1487 1488 1488 1489 1490 1491 1491 1491 1490 1489 1488 1486 1485 1483 1481 1479 1477 1474 1472 1468
1508 1514 1514 1508 1501 1500 1503 1500 1482 1485 1483 1483 1484 1484 1481 1479 1479 1479 1479 1480 1479 1479 1478 1477 1476 1477 1478 1481 1483 1484 1485 1486 1487 1487 1487 1487 1487 1486 1485 1484 1482 1480 1478 1475 1473 1471 1468 1465 1462
1510 1510 1510 1510 1501 1500 1501 1496 1482 1481 1482 1482 1482 1483 1481 1479 1480 1480 1480 1479 1479 1478 1477 1476 1475 1475 1476 1477 1479 1481 1482 1483 1484 1484 1484 1483 1482 1481 1480 1478 1477 1475 1473 1470 1468 1465 1462 1459 1456
1503 1506 1509 1505 1500 1501 1499 1495 1483 1476 1479 1478 1480 1482 1481 1480 1481 1481 1481 1480 1480 1479 1478 1476 1475 1475 1475 1476 1477 1478 1479 1480 1480 1480 1480 1479 1478 1477 1476 1474 1473 1471 1468 1466 1463 1459 1456 1453 1450
1501 1505 1507 1504 1500 1499 1497 1491 1480 1475 1474 1474 1477 1481 1482 1481 1481 1482 1481 1481 1481 1480 1478 1478 1477 1477 1477 1477 1477 1478 1478 1479 1479 1479 1478 1477 1476 1475 1473 1471 1469 1466 1464 1461 1458 1454 1450 1447 1446
1501 1505 1506 1506 1502 1497 1497 1491 1482 1474 1473 1474 1477 1479 1481 1482 1482 1482 1481 1481 1481 1480 1480 1480 1480 1479 1479 1478 1478 1478 1478 1479 1479 1478 1477 1476 1475 1473 1471 1469 1466 1464 1460 1457 1454 1451 1447 1443 1441
1501 1500 1503 1505 1509 1510 1505 1508 1487 1476 1474 1474 1476 1479 1481 1483 1483 1482 1481 1481 1482 1482 1483 1483 1482 1481 1481 1480 1479 1479 1479 1479 1479 1479 1478 1476 1474 1472 1470 1467 1464 1461 1458 1455 1452 1448 1444 1439 1435
1495 1496 1501 1504 1507 1511 1507 1508 1489 1477 1475 1474 1475 1477 1480 1483 1483 1483 1482 1482 1483 1484 1485 1485 1484 1483 1483 1482 1482 1481 1480 1480 1480 1479 1477 1475 1473 1470 1468 1465 1462 1459 1455 1452 1448 1444 1440 1436 1431
1492 1498 1503 1507 1509 1515 1505 1507 1493 1478 1471 1469 1472 1475 1479 1482 1484 1484 1483 1483 1484 1485 1486 1486 1485 1484 1485 1484 1483 1483 1482 1481 1479 1477 1475 1473 1470 1467 1464 1461 1458 1454 1450 1447 1443 1439 1435 1431 1427
1492 1503 1514 1514 1516 1512 1499 1502 1486 1466 1463 1463 1467 1472 1477 1481 1483 1483 1483 1484 1484 1485 1486 1486 1486 1485 1485 1485 1484 1483 1482 1480 1478 1475 1473 1470 1467 1464 1460 1457 1453 1449 1445 1441 1437 1433 1429 1425 1421
1490 1497 1509 1515 1515 1507 1497 1499 1476 1462 1460 1460 1463 1469 1476 1480 1482 1483 1483 1483 1484 1484 1485 1486 1486 1485 1485 1485 1484 1483 1482 1480 1477 1475 1471 1468 1464 1461 1457 1453 1449 1445 1440 1435 1431 1426 1422 1418 1414
1488 1493 1492 1501 1503 1506 1497 1486 1469 1459 1459 1459 1462 1468 1474 1478 1481 1482 1482 1483 1483 1484 1485 1485 1485 1485 1485 1484 1484 1483 1481 1478 1476 1473 1469 1466 1461 1457 1453 1449 1444 1440 1435 1431 1426 1421 1417 1413 1408
1477 1482 1497 1499 1503 1504 1495 1487 1475 1459 1460 1463 1465 1467 1472 1476 1479 1480 1481 1482 1483 1484 1485 1485 1485 1485 1484 1484 1483 1481 1479 1477 1474 1470 1466 1462 1458 1453 1449 1444 1440 1435 1431 1426 1421 1416 1412 1407 1403
1479 1482 1484 1492 1496 1503 1499 1486 1465 1462 1460 1462 1465 1468 1471 1474 1477 1478 1479 1480 1482 1483 1484 1484 1484 1484 1484 1483 1481 1480 1477 1474 1470 1466 1462 1458 1454 1449 1444 1440 1436 1432 1427 1422 1417 1412 1406 1401 1396
1467 1473 1480 1490 1496 1499 1500 1487 1462 1461 1458 1460 1466 1469 1471 1474 1476 1476 1478 1479 1481 1482 1482 1483 1483 1483 1482 1481 1479 1477 1474 1471 1467 1463 1458 1454 1450 1446 1441 1437 1432 1428 1423 1418 1412 1406 1400 1395 1389